• Join FlightAware (Why Join?)
  • Login
  • US Flag 
09:27PM EDT


 

Airport Tracker/Info


-or-


 

Live Flight TrackerFlight Track Log ✈ NCB1120 ✈ 18-Jul-2013 ✈ CYYC - CRL4

Flight Track Log - Related Links

Times and Time Zones

All times are in EDT time to prevent confusion due to time zone crossing. See the NCB1120 flight status page for this flight to view local times or setup timezone preferences in your user account.

Time Position Orientation Groundspeed Altitude Reporting Facility
EDT Latitude Longitude Course Direction KTS MPH feet Rate Location/Type
11:05AM 51.1000 -114.0333 360° North 120 138 4,800  Level Edmonton Center
11:06AM 51.1333 -114.0500 343° North 140 161 5,500 780 Climbing Edmonton Center
11:07AM 51.1833 -114.0333 12° North 160 184 6,400 900 Climbing Edmonton Center
11:08AM 51.2167 -114.0333 360° North 160 184 7,300 900 Climbing Edmonton Center
11:09AM 51.2667 -114.0167 12° North 150 173 8,300 900 Climbing Edmonton Center
11:10AM 51.3000 -114.0333 343° North 160 184 9,100 840 Climbing Edmonton Center
11:11AM 51.3667 -114.0167 North 160 184 10,000 840 Climbing Edmonton Center
11:12AM 51.4167 -114.0167 360° North 160 184 10,800 780 Climbing Edmonton Center
11:13AM 51.4500 -114.0000 17° North 170 196 11,600 780 Climbing Edmonton Center
11:14AM 51.5000 -114.0167 348° North 170 196 12,400 780 Climbing Edmonton Center
11:15AM 51.5500 -114.0000 12° North 180 207 13,200 840 Climbing Edmonton Center
11:16AM 51.6000 -114.0000 360° North 170 196 14,100 840 Climbing Edmonton Center
11:17AM 51.6500 -113.9833 12° North 170 196 14,900 660 Climbing Edmonton Center
11:18AM 51.7000 -114.0000 348° North 180 207 15,500 660 Climbing Edmonton Center
11:19AM 51.7500 -113.9833 12° North 180 207 16,300 720 Climbing Edmonton Center
11:20AM 51.8000 -114.0000 348° North 180 207 17,000 600 Climbing Edmonton Center
11:21AM 51.8500 -113.9833 12° North 190 219 17,600 600 Climbing Edmonton Center
11:22AM 51.9000 -113.9833 360° North 200 230 18,200 600 Climbing Edmonton Center
11:23AM 51.9500 -113.9667 12° North 200 230 18,900 600 Climbing Edmonton Center
11:24AM 52.0000 -113.9833 348° North 190 219 19,500 480 Climbing Edmonton Center
11:25AM 52.0833 -113.9667 North 190 219 19,900 360 Climbing Edmonton Center
11:26AM 52.1333 -113.9500 12° North 200 230 20,300 420 Climbing Edmonton Center
11:27AM 52.1833 -113.9667 348° North 200 230 20,800 420 Climbing Edmonton Center
11:28AM 52.2500 -113.9500 North 200 230 21,200 360 Climbing Edmonton Center
11:29AM 52.3000 -113.9667 348° North 200 230 21,600 360 Climbing Edmonton Center
11:30AM 52.3500 -113.9500 12° North 200 230 22,000 360 Climbing Edmonton Center
11:31AM 52.4000 -113.9500 360° North 200 230 22,400 300 Climbing Edmonton Center
11:32AM 52.4667 -113.9500 360° North 200 230 22,700 300 Climbing Edmonton Center
11:33AM 52.5167 -113.9333 11° North 200 230 23,000 300 Climbing Edmonton Center
11:34AM 52.5667 -113.9333 360° North 200 230 23,300 60 Climbing Edmonton Center
11:35AM 52.6333 -113.9167 North 210 242 23,200 -60 Descending Edmonton Center
11:36AM 52.6833 -113.9333 349° North 220 253 23,200 -120 Level Edmonton Center
11:37AM 52.7667 -113.9167 North 230 265 23,000 -120 Descending Edmonton Center
11:38AM 52.8333 -113.9000 North 240 276 23,000  Level Edmonton Center
11:39AM 52.9000 -113.9167 351° North 230 265 23,000  Level Edmonton Center
11:40AM 52.9500 -113.8500 39° Northeast 240 276 23,000  Level Edmonton Center
11:41AM 53.0000 -113.8000 31° Northeast 240 276 23,000  Level Edmonton Center
11:42AM 53.0667 -113.7333 31° Northeast 240 276 23,000  Level Edmonton Center
11:43AM 53.1167 -113.6833 31° Northeast 240 276 23,000  Level Edmonton Center
11:44AM 53.1833 -113.6500 17° North 240 276 23,000  Level Edmonton Center
11:45AM 53.2500 -113.5667 37° Northeast 240 276 23,000  Level Edmonton Center
11:46AM 53.3000 -113.5333 22° Northeast 240 276 23,000  Level Edmonton Center
11:47AM 53.3500 -113.4500 45° Northeast 240 276 23,000  Level Edmonton Center
11:48AM 53.4167 -113.4000 24° Northeast 240 276 23,000  Level Edmonton Center
11:49AM 53.4667 -113.3667 22° Northeast 240 276 23,000  Level Edmonton Center
11:50AM 53.5333 -113.2833 37° Northeast 230 265 23,000  Level Edmonton Center
11:51AM 53.6000 -113.2500 17° North 230 265 23,000  Level Edmonton Center
11:52AM 53.6500 -113.2000 31° Northeast 230 265 23,000  Level Edmonton Center
11:53AM 53.7000 -113.1167 45° Northeast 230 265 23,000  Level Edmonton Center
11:54AM 53.7667 -113.0833 16° North 230 265 23,000  Level Edmonton Center
11:55AM 53.8167 -113.0333 31° Northeast 230 265 23,000  Level Edmonton Center
11:56AM 53.8667 -112.9500 44° Northeast 230 265 23,000  Level Edmonton Center
11:57AM 53.9167 -112.9167 21° North 230 265 23,000  Level Edmonton Center
11:58AM 53.9833 -112.8667 24° Northeast 230 265 23,000  Level Edmonton Center
11:59AM 54.0500 -112.7833 36° Northeast 230 265 23,000  Level Edmonton Center
12:00PM 54.0833 -112.7333 41° Northeast 220 253 23,000  Level Edmonton Center
12:01PM 54.1333 -112.7167 11° North 210 242 23,000  Level Edmonton Center
12:02PM 54.2000 -112.6667 24° Northeast 210 242 23,000  Level Edmonton Center
12:03PM 54.2500 -112.6167 30° Northeast 200 230 23,000  Level Edmonton Center
12:04PM 54.3000 -112.5833 21° North 200 230 23,000  Level Edmonton Center
12:05PM 54.3500 -112.5500 21° North 200 230 23,000  Level Edmonton Center
12:06PM 54.4167 -112.5167 16° North 210 242 23,000 -60 Level Edmonton Center
12:07PM 54.4667 -112.4667 30° Northeast 220 253 22,900 -660 Descending Edmonton Center
12:08PM 54.5167 -112.4167 30° Northeast 210 242 21,700 -1,200 Descending Edmonton Center
12:09PM 54.5667 -112.3667 30° Northeast 210 242 20,500 -1,260 Descending Edmonton Center
12:10PM 54.6167 -112.3500 11° North 200 230 19,200 -1,440 Descending Edmonton Center
12:11PM 54.6833 -112.3000 23° Northeast 200 230 17,700 -1,560 Descending Edmonton Center
12:12PM 54.7333 -112.2500 30° Northeast 200 230 16,100 -1,620 Descending Edmonton Center
12:13PM 54.7833 -112.2000 30° Northeast 200 230 14,500 -1,680 Descending Edmonton Center
12:14PM 54.8167 -112.1833 16° North 190 219 12,800 -1,620 Descending Edmonton Center
12:15PM 54.8833 -112.1333 23° Northeast 200 230 11,300 -1,500 Descending Edmonton Center
12:16PM 54.9333 -112.1000 21° North 210 242 9,900 -1,500 Descending Edmonton Center
12:17PM 55.0000 -112.0667 16° North 210 242 8,400 -1,440 Descending Edmonton Center
12:18PM 55.0500 -112.0333 21° North 210 242 7,100 -1,020 Descending Edmonton Center
12:19PM 55.1000 -111.9833 30° Northeast 210 242 6,400 -600 Descending Edmonton Center
12:20PM 55.1667 -111.9333 23° Northeast 200 230 6,000 -240 Descending Edmonton Center
12:21PM 55.2000 -111.9167 16° North 190 219 6,000  Level Edmonton Center
12:22PM 55.2167 -111.8333 71° East 190 219 6,000  Level Edmonton Center
12:23PM 55.2333 -111.7500 71° East 190 219 6,000  Level Edmonton Center
12:24PM 55.2667 -111.6667 55° Northeast 190 219 6,000  Level Edmonton Center
12:25PM 55.2833 -111.5667 74° East 200 230 6,000  Level Edmonton Center
12:26PM 55.3167 -111.4833 55° Northeast 200 230 6,000  Level Edmonton Center
12:27PM 55.3500 -111.4000 55° Northeast 200 230 6,000  Level Edmonton Center
12:28PM 55.3500 -111.3167 90° East 180 207 6,000 -180 Level Edmonton Center
12:29PM 55.3667 -111.2333 71° East 160 184 5,700 -600 Descending Edmonton Center
12:30PM 55.3500 -111.1333 106° East 180 207 4,900 -720 Descending Edmonton Center
12:31PM 55.3667 -111.0500 71° East 200 230 4,300 -600 Descending Edmonton Center
12:32PM 55.3500 -110.9500 106° East 190 219 3,800 -540 Descending Edmonton Center
12:35PM 55.3374 -110.7340 78° East  Level FlightAware Approximate
12:42PM 55.3500 -110.6333 78° East  Level FlightAware Approximate
12:43PM 55.3556 -110.6376 78° East  Level Estimated
12:44PM 55.3500 -110.6333 78° East  Level FlightAware Approximate
12:45PM 55.3556 -110.6376 78° East  Level Estimated
12:46PM 55.3500 -110.6333 78° East  Level FlightAware Approximate
12:47PM 55.3556 -110.6376 78° East  Level Estimated